CW1936 Weather Reports


Display with metric or nautical units.
time (UTC)temp
F
wind
direction
speed
MPH
gust
MPH
rain 1hr
in
rain 24hr
in
rain mn
in
humidity
%
barometer
mb
20260508054601 66 108 0.0 0.0 0.00 0.00 0.00 70 1015.0
20260508053102 65 108 0.0 0.0 0.00 0.00 0.00 71 1015.0
20260508051610 65 146 0.0 0.0 0.00 0.00 0.00 68 1015.1
20260508050105 65 146 0.0 0.0 0.00 0.00 0.00 68 1015.3
20260508044556 65 355 0.0 0.0 0.00 0.00 0.00 70 1015.3
20260508043052 63 355 0.0 0.0 0.00 0.00 0.00 68 1015.4
20260508041558 63 355 0.0 0.0 0.00 0.00 0.00 64 1015.0
20260508040058 62 355 0.0 0.0 0.00 0.00 0.00 64 1014.9
20260508034550 61 355 0.0 0.0 0.00 0.00 0.00 67 1014.7
20260508033050 61 358 0.0 0.0 0.00 0.00 0.00 71 1014.7
20260508031547 61 358 0.0 0.0 0.00 0.00 0.00 68 1014.8
20260508030052 61 357 0.0 0.0 0.00 0.00 0.00 70 1015.1
20260508024544 61 357 0.0 0.0 0.00 0.00 0.00 71 1015.3
20260508023042 61 357 0.0 0.0 0.00 0.00 0.00 75 1015.5
20260508021541 61 357 0.0 0.0 0.00 0.00 0.00 74 1015.5
20260508020038 62 357 0.0 0.0 0.00 0.00 0.00 73 1015.7
20260508014537 62 357 0.0 0.0 0.00 0.00 0.00 69 1015.6
20260508013037 62 359 0.0 0.0 0.00 0.00 0.00 69 1015.6
20260508011536 62 358 0.0 0.0 0.00 0.00 0.00 68 1015.7
20260508010032 63 359 0.0 0.0 0.00 0.00 0.00 74 1015.7
20260508004533 63 358 0.0 0.0 0.00 0.00 0.00 73 1015.7
20260508003029 63 359 0.0 0.0 0.00 0.00 0.00 73 1015.8
20260508001530 63 359 0.0 0.0 0.00 0.00 0.00 73 1015.9
20260508000029 63 359 0.0 0.0 0.00 0.00 0.00 71 1016.1
20260507234540 64 359 0.0 0.0 0.00 0.00 0.00 68 1016.4
20260507233027 64 358 0.0 0.0 0.00 0.00 0.00 73 1016.7
20260507231520 64 359 0.0 0.0 0.00 0.00 0.00 73 1016.7
20260507230019 64 359 0.0 0.0 0.00 0.00 0.00 72 1016.8
20260507224518 64 359 0.0 0.0 0.00 0.00 0.00 71 1017.0
20260507223015 63 359 0.0 0.0 0.00 0.00 0.00 68 1017.2
20260507221520 64 358 0.0 0.0 0.00 0.00 0.00 66 1017.0
20260507220014 63 358 0.0 0.0 0.00 0.00 0.00 67 1017.0
20260507214514 63 3 0.0 0.0 0.00 0.00 0.00 70 1017.1
20260507213022 63 3 0.0 0.0 0.00 0.00 0.00 70 1017.2
20260507211511 63 14 0.0 0.0 0.00 0.00 0.00 68 1017.2
20260507210008 64 14 0.0 0.0 0.00 0.00 0.00 63 1017.0
20260507204507 63 14 0.0 0.0 0.00 0.00 0.00 63 1017.1
20260507203006 63 18 0.0 0.0 0.00 0.00 0.00 67 1017.0
20260507201507 63 18 0.0 0.0 0.00 0.00 0.00 65 1016.9
20260507200009 63 18 0.0 0.0 0.00 0.00 0.00 65 1017.1
20260507194520 63 18 0.0 0.0 0.00 0.00 0.00 65 1017.2
20260507193007 63 18 0.0 0.0 0.00 0.00 0.00 70 1017.2
20260507191505 63 18 0.0 0.0 0.00 0.00 0.00 72 1017.1
20260507190010 63 18 0.0 0.0 0.00 0.00 0.00 72 1017.0
20260507184504 63 18 0.0 0.0 0.00 0.00 0.00 73 1016.9
20260507183003 64 18 0.0 0.0 0.00 0.00 0.00 73 1016.7
20260507181502 64 18 0.0 0.0 0.00 0.00 0.00 72 1016.8
20260507180001 65 18 0.0 0.0 0.00 0.00 0.00 71 1016.7
20260507174501 65 18 0.0 0.0 0.00 0.00 0.00 70 1016.7
20260507173120 66 18 0.0 0.0 0.00 0.00 0.00 69 1016.6
20260507171601 68 18 0.0 0.0 0.00 0.00 0.00 67 1016.5
20260507170100 69 18 0.0 0.0 0.00 0.00 0.00 62 1016.6
20260507164631 70 18 0.0 0.0 0.00 0.00 0.00 60 1016.6
20260507163100 70 18 0.0 0.0 0.00 0.00 0.00 59 1016.6
20260507161604 70 25 0.0 2.0 0.00 0.00 0.00 58 1016.7
20260507160058 70 316 0.0 2.0 0.00 0.00 0.00 63 1016.5
20260507154600 71 27 0.0 0.0 0.00 0.00 0.00 68 1016.3
20260507153058 71 32 0.0 0.0 0.00 0.00 0.00 67 1016.2
20260507151556 71 32 0.0 1.0 0.00 0.00 0.00 68 1016.3
20260507150056 72 6 0.0 1.0 0.00 0.00 0.00 70 1016.3
20260507144600 72 41 0.0 2.0 0.00 0.00 0.00 67 1016.4
20260507143100 73 28 0.0 1.0 0.00 0.00 0.00 65 1016.6
20260507141556 73 37 1.0 5.0 0.00 0.00 0.00 61 1016.6
20260507140053 77 25 1.0 4.0 0.00 0.00 0.00 52 1016.5
20260507134552 79 43 0.0 2.0 0.00 0.00 0.00 36 1016.5
20260507133052 79 29 0.0 0.0 0.00 0.00 0.00 33 1016.6
20260507131555 79 105 0.0 0.0 0.00 0.00 0.00 32 1016.7
20260507130053 78 46 0.0 1.0 0.00 0.00 0.00 32 1016.7
20260507124600 77 89 0.0 1.0 0.00 0.00 0.00 34 1016.8
20260507123047 78 102 0.0 0.0 0.00 0.00 0.00 30 1017.0
20260507121546 79 101 0.0 0.0 0.00 0.00 0.00 35 1017.0
20260507120046 77 32 0.0 0.0 0.00 0.00 0.00 35 1017.2
20260507114603 77 127 0.0 1.0 0.00 0.00 0.00 33 1017.1
20260507113103 78 23 0.0 2.0 0.00 0.00 0.00 33 1017.3
20260507111546 76 121 1.0 4.0 0.00 0.00 0.00 34 1017.1
20260507110043 78 141 0.0 1.0 0.00 0.00 0.00 32 1017.1
20260507104542 77 58 0.0 0.0 0.00 0.00 0.00 35 1017.2
20260507103049 76 120 0.0 0.0 0.00 0.00 0.00 38 1017.2
20260507101540 76 11 0.0 0.0 0.00 0.00 0.00 40 1017.2
20260507100038 76 72 0.0 0.0 0.00 0.00 0.00 36 1017.4
20260507094541 77 63 0.0 0.0 0.00 0.00 0.00 38 1017.6
20260507093037 77 104 0.0 0.0 0.00 0.00 0.00 35 1017.5